Date,TemperatureHighF,TemperatureAvgF,TemperatureLowF,DewpointHighF,DewpointAvgF,DewpointLowF,HumidityHigh,HumidityAvg,HumidityLow,PressureMaxIn,PressureMinIn,WindSpeedMaxMPH,WindSpeedAvgMPH,GustSpeedMaxMPH,PrecipitationSumIn
2013-3-1,49.8,38.1,29.3,24.7,15.6,5.9,57,41,24,30.53,30.42,9,2,13,0.00
2013-3-2,53.7,41.8,29.1,35.7,21.6,13.1,71,46,26,30.42,30.24,9,2,13,0.00
2013-3-3,47.1,42.5,38.8,31.0,20.9,14.5,59,43,28,30.24,30.09,8,1,12,0.00
2013-3-4,46.8,38.9,28.8,21.1,17.3,12.7,51,42,27,30.09,29.74,7,2,12,0.00
2013-3-5,48.0,35.4,27.0,32.0,17.2,10.6,68,49,24,29.74,29.65,8,2,13,0.00
2013-3-6,39.9,37.7,35.6,31.9,24.8,21.4,77,60,50,29.74,29.65,10,5,17,0.00
2013-3-7,42.4,40.0,38.5,38.2,33.4,23.9,85,77,55,29.65,29.53,12,7,20,0.12
2013-3-8,39.2,38.0,37.2,30.9,28.8,23.8,77,69,55,29.71,29.56,13,8,20,0.04
2013-3-9,37.4,36.1,34.3,30.8,23.4,6.8,78,62,31,29.88,29.71,13,7,24,0.12
2013-3-10,35.8,31.3,25.2,20.2,10.6,3.4,60,43,27,30.09,29.88,13,6,23,0.08
2013-3-11,32.6,26.3,16.9,10.8,4.5,-5.5,55,40,25,30.12,30.09,10,5,20,0.00
2013-3-12,43.3,29.2,13.0,15.0,4.7,-5.8,48,36,23,30.12,29.88,9,2,13,0.20
2013-3-13,41.3,32.8,23.4,12.2,6.0,0.0,46,33,23,29.97,29.88,8,2,12,0.00
2013-3-14,41.2,33.7,21.7,25.0,15.7,1.0,59,47,38,29.97,29.59,13,4,17,0.00
2013-3-15,46.0,38.7,30.4,28.2,18.9,8.3,61,46,28,29.59,29.35,12,5,16,0.00
2013-3-16,36.0,33.4,28.4,28.1,24.2,13.0,76,69,51,29.38,29.20,6,1,10,0.16
2013-3-17,38.5,35.3,31.5,32.2,27.8,22.6,78,74,59,29.26,29.12,9,3,14,0.63
2013-3-18,38.1,35.0,31.6,31.5,25.8,18.7,77,69,54,29.53,29.26,14,6,18,0.12
2013-3-19,34.2,33.1,31.8,28.3,25.8,21.0,80,74,64,29.65,29.53,15,7,25,0.04
2013-3-20,38.2,33.6,28.6,28.1,19.5,10.4,80,58,34,30.03,29.65,9,2,13,0.47
2013-3-21,38.3,31.3,22.6,18.1,11.0,5.6,62,44,26,30.09,30.00,13,4,20,0.00
2013-3-22,33.8,32.6,30.9,23.3,14.3,9.6,72,47,37,30.00,29.94,18,11,27,0.00
2013-3-23,32.2,31.4,30.6,17.5,9.0,3.5,56,39,31,30.18,30.00,17,10,25,0.00
2013-3-24,35.1,31.9,30.2,9.4,5.8,3.4,38,33,27,30.27,30.18,15,9,25,0.00
2013-3-25,35.2,32.4,30.9,10.8,7.2,4.4,42,34,31,30.30,30.24,12,7,17,0.00
2013-3-26,36.7,30.9,21.7,13.3,7.6,-1.1,49,37,27,30.24,30.15,14,4,16,0.00
2013-3-27,37.8,31.3,22.7,19.2,11.5,3.0,61,44,27,30.15,30.09,9,3,18,0.08
2013-3-28,39.6,33.1,26.4,21.0,11.2,3.5,62,42,23,30.09,30.03,9,3,13,0.08
2013-3-29,39.0,31.9,24.0,19.1,10.7,3.1,54,42,26,30.03,29.91,7,2,13,0.04
2013-3-30,38.8,30.9,22.6,18.5,9.6,4.6,54,41,29,30.00,29.94,6,2,8,0.00
2013-3-31,42.6,30.5,19.0,16.0,5.9,2.6,54,37,23,30.03,29.94,8,3,10,0.00